Time,TemperatureF,DewpointF,PressureIn,WindDirection,WindDirectionDegrees,WindSpeedMPH,WindSpeedGustMPH,Humidity,HourlyPrecipIn,Conditions,Clouds,dailyrainin,SoftwareType,DateUTC
2013-10-26 00:07:00,38.8,24.5,29.94,NW,316,4.0,9.0,56,0.00,,,-99.99,Weather View 32 v70,2013-10-26 05:07:00,
2013-10-26 00:17:00,38.5,24.1,29.94,NW,317,4.0,9.0,56,0.00,,,-99.99,Weather View 32 v70,2013-10-26 05:17:00,
2013-10-26 00:22:00,38.1,23.8,29.94,WNW,289,4.0,9.0,56,0.00,,,-99.99,Weather View 32 v70,2013-10-26 05:22:00,
2013-10-26 00:27:00,38.1,23.8,29.94,NW,309,3.0,9.0,56,0.00,,,-99.99,Weather View 32 v70,2013-10-26 05:27:00,
2013-10-26 00:37:00,38.3,24.8,29.94,WNW,289,3.0,8.0,58,0.00,,,-99.99,Weather View 32 v70,2013-10-26 05:37:00,
2013-10-26 00:42:00,38.5,25.0,29.94,NW,324,5.0,6.0,58,0.00,,,-99.99,Weather View 32 v70,2013-10-26 05:42:00,
2013-10-26 00:47:00,38.7,25.1,29.94,WNW,293,3.0,6.0,58,0.00,,,-99.99,Weather View 32 v70,2013-10-26 05:47:00,
2013-10-26 00:57:00,39.2,25.2,29.94,WNW,300,3.0,8.0,57,0.00,,,-99.99,Weather View 32 v70,2013-10-26 05:57:00,
2013-10-26 01:02:00,39.4,25.0,29.94,WNW,302,0.0,8.0,56,0.00,,,-99.99,Weather View 32 v70,2013-10-26 06:02:00,
2013-10-26 01:12:00,39.4,24.5,29.94,SW,236,5.0,8.0,55,0.00,,,-99.99,Weather View 32 v70,2013-10-26 06:12:00,
2013-10-26 01:19:00,39.6,24.7,29.97,NW,313,5.0,8.0,55,0.00,,,-99.99,Weather View 32 v70,2013-10-26 06:19:00,
2013-10-26 01:27:00,39.7,24.4,29.97,WNW,288,4.0,8.0,54,0.00,,,-99.99,Weather View 32 v70,2013-10-26 06:27:00,
2013-10-26 01:32:00,39.7,24.4,29.97,NW,314,3.0,8.0,54,0.00,,,-99.99,Weather View 32 v70,2013-10-26 06:32:00,
2013-10-26 01:37:00,39.7,24.4,29.97,NW,310,6.0,8.0,54,0.00,,,-99.99,Weather View 32 v70,2013-10-26 06:37:00,
2013-10-26 01:42:00,39.7,24.4,29.97,WNW,295,6.0,8.0,54,0.00,,,-99.99,Weather View 32 v70,2013-10-26 06:42:00,
2013-10-26 01:52:00,39.7,24.4,29.97,WNW,285,4.0,8.0,54,0.00,,,-99.99,Weather View 32 v70,2013-10-26 06:52:00,
2013-10-26 02:02:00,39.9,24.6,29.97,WNW,293,4.0,8.0,54,0.00,,,-99.99,Weather View 32 v70,2013-10-26 07:02:00,
2013-10-26 02:07:00,39.9,24.2,29.97,West,274,5.0,11.0,53,0.00,,,-99.99,Weather View 32 v70,2013-10-26 07:07:00,
2013-10-26 02:12:00,40.3,24.5,29.97,WNW,297,4.0,11.0,53,0.00,,,-99.99,Weather View 32 v70,2013-10-26 07:12:00,
2013-10-26 02:19:00,40.3,24.5,29.97,South,190,6.0,11.0,53,0.00,,,-99.99,Weather View 32 v70,2013-10-26 07:19:00,
2013-10-26 02:27:00,40.5,24.2,29.97,WNW,295,4.0,11.0,52,0.00,,,-99.99,Weather View 32 v70,2013-10-26 07:27:00,
2013-10-26 02:32:00,40.5,24.2,29.97,WNW,301,5.0,11.0,52,0.00,,,-99.99,Weather View 32 v70,2013-10-26 07:32:00,
2013-10-26 02:37:00,40.3,24.0,29.97,WNW,287,3.0,11.0,52,0.00,,,-99.99,Weather View 32 v70,2013-10-26 07:37:00,
2013-10-26 02:47:00,39.7,24.0,29.97,WNW,283,5.0,11.0,53,0.00,,,-99.99,Weather View 32 v70,2013-10-26 07:47:00,
2013-10-26 02:52:00,39.6,23.8,29.97,NW,318,5.0,11.0,53,0.00,,,-99.99,Weather View 32 v70,2013-10-26 07:52:00,
2013-10-26 02:57:00,39.4,24.1,29.97,WNW,282,5.0,11.0,54,0.00,,,-99.99,Weather View 32 v70,2013-10-26 07:57:00,
2013-10-26 03:02:00,39.2,23.9,30.00,SW,218,4.0,11.0,54,0.00,,,-99.99,Weather View 32 v70,2013-10-26 08:02:00,
2013-10-26 03:12:00,38.7,23.9,30.00,WSW,252,6.0,11.0,55,0.00,,,-99.99,Weather View 32 v70,2013-10-26 08:12:00,
2013-10-26 03:17:00,38.5,23.7,30.00,West,277,5.0,11.0,55,0.00,,,-99.99,Weather View 32 v70,2013-10-26 08:17:00,
2013-10-26 03:27:00,37.9,23.2,30.00,West,273,3.0,11.0,55,0.00,,,-99.99,Weather View 32 v70,2013-10-26 08:27:00,
2013-10-26 03:32:00,37.8,23.0,30.00,WNW,300,7.0,11.0,55,0.00,,,-99.99,Weather View 32 v70,2013-10-26 08:32:00,
2013-10-26 03:37:00,37.6,22.9,30.00,WSW,243,4.0,11.0,55,0.00,,,-99.99,Weather View 32 v70,2013-10-26 08:37:00,
2013-10-26 03:42:00,37.6,22.9,30.00,WNW,292,4.0,11.0,55,0.00,,,-99.99,Weather View 32 v70,2013-10-26 08:42:00,
2013-10-26 03:52:00,37.2,23.0,30.00,WNW,292,4.0,11.0,56,0.00,,,-99.99,Weather View 32 v70,2013-10-26 08:52:00,
2013-10-26 03:57:00,37.0,22.8,30.00,WNW,299,4.0,11.0,56,0.00,,,-99.99,Weather View 32 v70,2013-10-26 08:57:00,
2013-10-26 04:02:00,36.9,22.6,30.00,West,271,6.0,11.0,56,0.00,,,-99.99,Weather View 32 v70,2013-10-26 09:02:00,
2013-10-26 04:12:00,36.7,22.4,30.00,West,271,4.0,8.0,56,0.00,,,-99.99,Weather View 32 v70,2013-10-26 09:12:00,
2013-10-26 04:17:00,36.5,21.9,30.03,NW,308,4.0,8.0,55,0.00,,,-99.99,Weather View 32 v70,2013-10-26 09:17:00,
2013-10-26 04:27:00,36.0,21.8,30.03,West,271,5.0,9.0,56,0.00,,,-99.99,Weather View 32 v70,2013-10-26 09:27:00,
2013-10-26 04:32:00,35.6,21.4,30.03,West,280,4.0,9.0,56,0.00,,,-99.99,Weather View 32 v70,2013-10-26 09:32:00,
2013-10-26 04:37:00,35.4,21.7,30.03,West,270,5.0,9.0,57,0.00,,,-99.99,Weather View 32 v70,2013-10-26 09:37:00,
2013-10-26 04:42:00,35.2,21.9,30.03,WNW,301,5.0,9.0,58,0.00,,,-99.99,Weather View 32 v70,2013-10-26 09:42:00,
2013-10-26 04:52:00,35.1,22.2,30.03,WNW,290,7.0,11.0,59,0.00,,,-99.99,Weather View 32 v70,2013-10-26 09:52:00,
2013-10-26 05:02:00,34.9,22.0,30.03,NW,304,4.0,11.0,59,0.00,,,-99.99,Weather View 32 v70,2013-10-26 10:02:00,
2013-10-26 05:12:00,34.7,21.8,30.03,NW,319,6.0,11.0,59,0.00,,,-99.99,Weather View 32 v70,2013-10-26 10:12:00,
2013-10-26 05:17:00,34.5,21.7,30.03,West,268,5.0,11.0,59,0.00,,,-99.99,Weather View 32 v70,2013-10-26 10:17:00,
2013-10-26 05:27:00,34.3,21.5,30.03,WNW,283,5.0,11.0,59,0.00,,,-99.99,Weather View 32 v70,2013-10-26 10:27:00,
2013-10-26 05:37:00,34.0,21.1,30.06,West,272,4.0,11.0,59,0.00,,,-99.99,Weather View 32 v70,2013-10-26 10:37:00,
2013-10-26 05:42:00,33.8,21.0,30.06,WNW,284,4.0,11.0,59,0.00,,,-99.99,Weather View 32 v70,2013-10-26 10:42:00,
2013-10-26 05:52:00,33.4,21.0,30.06,WNW,288,4.0,11.0,60,0.00,,,-99.99,Weather View 32 v70,2013-10-26 10:52:00,
2013-10-26 05:57:00,33.3,20.9,30.06,WNW,283,4.0,11.0,60,0.00,,,-99.99,Weather View 32 v70,2013-10-26 10:57:00,
2013-10-26 06:07:00,33.1,21.1,30.06,West,272,3.0,11.0,61,0.00,,,-99.99,Weather View 32 v70,2013-10-26 11:07:00,
2013-10-26 06:17:00,32.9,20.9,30.06,West,268,4.0,11.0,61,0.00,,,-99.99,Weather View 32 v70,2013-10-26 11:17:00,
2013-10-26 06:22:00,32.9,21.3,30.06,WNW,289,3.0,11.0,62,0.00,,,-99.99,Weather View 32 v70,2013-10-26 11:22:00,
2013-10-26 06:32:00,32.9,21.3,30.06,WSW,257,4.0,8.0,62,0.00,,,-99.99,Weather View 32 v70,2013-10-26 11:32:00,
2013-10-26 06:37:00,32.9,21.7,30.06,WSW,256,5.0,7.0,63,0.00,,,-99.99,Weather View 32 v70,2013-10-26 11:37:00,
2013-10-26 06:47:00,32.9,21.7,30.06,West,270,3.0,7.0,63,0.00,,,-99.99,Weather View 32 v70,2013-10-26 11:47:00,
2013-10-26 06:52:00,32.9,21.7,30.06,WNW,282,4.0,7.0,63,0.00,,,-99.99,Weather View 32 v70,2013-10-26 11:52:00,
2013-10-26 06:57:00,32.9,21.7,30.06,WNW,291,6.0,7.0,63,0.00,,,-99.99,Weather View 32 v70,2013-10-26 11:57:00,
2013-10-26 07:02:00,32.9,21.7,30.06,West,272,4.0,6.0,63,0.00,,,-99.99,Weather View 32 v70,2013-10-26 12:02:00,
2013-10-26 07:12:00,32.9,22.0,30.06,WNW,284,6.0,6.0,64,0.00,,,-99.99,Weather View 32 v70,2013-10-26 12:12:00,
2013-10-26 07:22:00,33.3,22.8,30.09,WSW,257,3.0,8.0,65,0.00,,,-99.99,Weather View 32 v70,2013-10-26 12:22:00,
2013-10-26 07:27:00,33.4,22.9,30.09,WNW,290,3.0,8.0,65,0.00,,,-99.99,Weather View 32 v70,2013-10-26 12:27:00,
2013-10-26 07:37:00,33.6,23.1,30.09,West,261,3.0,8.0,65,0.00,,,-99.99,Weather View 32 v70,2013-10-26 12:37:00,
2013-10-26 07:47:00,33.1,22.6,30.09,WSW,258,4.0,8.0,65,0.00,,,-99.99,Weather View 32 v70,2013-10-26 12:47:00,
2013-10-26 07:52:00,32.9,22.0,30.09,WNW,282,4.0,8.0,64,0.00,,,-99.99,Weather View 32 v70,2013-10-26 12:52:00,
2013-10-26 08:02:00,32.7,22.2,30.09,WNW,299,4.0,8.0,65,0.00,,,-99.99,Weather View 32 v70,2013-10-26 13:02:00,
2013-10-26 08:12:00,32.7,22.6,30.09,WNW,282,4.0,8.0,66,0.00,,,-99.99,Weather View 32 v70,2013-10-26 13:12:00,
2013-10-26 08:22:00,32.9,22.8,30.09,WSW,258,3.0,8.0,66,0.00,,,-99.99,Weather View 32 v70,2013-10-26 13:22:00,
2013-10-26 08:27:00,33.1,23.3,30.09,West,280,3.0,8.0,67,0.00,,,-99.99,Weather View 32 v70,2013-10-26 13:27:00,
2013-10-26 08:37:00,33.3,23.5,30.12,West,266,4.0,8.0,67,0.00,,,-99.99,Weather View 32 v70,2013-10-26 13:37:00,
2013-10-26 08:47:00,34.0,24.5,30.09,WNW,286,5.0,8.0,68,0.00,,,-99.99,Weather View 32 v70,2013-10-26 13:47:00,
2013-10-26 08:57:00,34.9,25.4,30.09,WNW,284,5.0,8.0,68,0.00,,,-99.99,Weather View 32 v70,2013-10-26 13:57:00,
2013-10-26 09:02:00,35.2,25.0,30.09,WNW,293,4.0,8.0,66,0.00,,,-99.99,Weather View 32 v70,2013-10-26 14:02:00,
2013-10-26 09:12:00,35.8,25.2,30.09,West,260,3.0,8.0,65,0.00,,,-99.99,Weather View 32 v70,2013-10-26 14:12:00,
2013-10-26 09:22:00,36.1,24.7,30.12,WNW,293,5.0,8.0,63,0.00,,,-99.99,Weather View 32 v70,2013-10-26 14:22:00,
2013-10-26 09:31:00,36.3,24.5,30.12,WNW,299,7.0,8.0,62,0.00,,,-99.99,Weather View 32 v70,2013-10-26 14:31:00,
2013-10-26 09:36:00,36.7,24.9,30.12,West,266,4.0,8.0,62,0.00,,,-99.99,Weather View 32 v70,2013-10-26 14:36:00,
2013-10-26 09:42:00,36.9,25.0,30.12,WNW,287,4.0,8.0,62,0.00,,,-99.99,Weather View 32 v70,2013-10-26 14:42:00,
2013-10-26 09:47:00,37.2,25.4,30.15,West,260,6.0,8.0,62,0.00,,,-99.99,Weather View 32 v70,2013-10-26 14:47:00,
2013-10-26 09:52:00,37.4,25.2,30.15,West,279,5.0,8.0,61,0.00,,,-99.99,Weather View 32 v70,2013-10-26 14:52:00,
2013-10-26 09:57:00,37.6,24.9,30.15,WSW,244,3.0,8.0,60,0.00,,,-99.99,Weather View 32 v70,2013-10-26 14:57:00,
2013-10-26 10:07:00,38.1,25.0,30.12,West,280,5.0,8.0,59,0.00,,,-99.99,Weather View 32 v70,2013-10-26 15:07:00,
2013-10-26 10:12:00,38.5,25.0,30.12,WNW,300,6.0,8.0,58,0.00,,,-99.99,Weather View 32 v70,2013-10-26 15:12:00,
2013-10-26 10:22:00,39.0,25.1,30.12,NW,307,3.0,8.0,57,0.00,,,-99.99,Weather View 32 v70,2013-10-26 15:22:00,
2013-10-26 10:27:00,39.4,25.0,30.12,WNW,290,5.0,8.0,56,0.00,,,-99.99,Weather View 32 v70,2013-10-26 15:27:00,
2013-10-26 10:32:00,39.6,24.7,30.12,NNW,328,6.0,8.0,55,0.00,,,-99.99,Weather View 32 v70,2013-10-26 15:32:00,
2013-10-26 10:37:00,39.7,24.4,30.12,NW,320,8.0,8.0,54,0.00,,,-99.99,Weather View 32 v70,2013-10-26 15:37:00,
2013-10-26 10:47:00,39.9,24.6,30.12,WNW,295,4.0,8.0,54,0.00,,,-99.99,Weather View 32 v70,2013-10-26 15:47:00,
2013-10-26 10:52:00,40.1,24.8,30.12,NW,318,5.0,8.0,54,0.00,,,-99.99,Weather View 32 v70,2013-10-26 15:52:00,
2013-10-26 10:57:00,40.3,24.5,30.12,NW,316,5.0,8.0,53,0.00,,,-99.99,Weather View 32 v70,2013-10-26 15:57:00,
2013-10-26 11:02:00,40.5,24.2,30.12,NW,308,4.0,8.0,52,0.00,,,-99.99,Weather View 32 v70,2013-10-26 16:02:00,
2013-10-26 11:12:00,40.6,24.4,30.12,WNW,300,5.0,10.0,52,0.00,,,-99.99,Weather View 32 v70,2013-10-26 16:12:00,
2013-10-26 11:17:00,40.8,24.5,30.12,NW,311,6.0,10.0,52,0.00,,,-99.99,Weather View 32 v70,2013-10-26 16:17:00,
2013-10-26 11:22:00,41.2,24.4,30.12,NW,307,5.0,10.0,51,0.00,,,-99.99,Weather View 32 v70,2013-10-26 16:22:00,
2013-10-26 11:32:00,42.3,25.4,30.12,WNW,288,3.0,10.0,51,0.00,,,-99.99,Weather View 32 v70,2013-10-26 16:32:00,
2013-10-26 11:37:00,42.8,25.4,30.12,NW,318,8.0,10.0,50,0.00,,,-99.99,Weather View 32 v70,2013-10-26 16:37:00,
2013-10-26 11:42:00,42.4,24.1,30.12,NNW,344,4.0,11.0,48,0.00,,,-99.99,Weather View 32 v70,2013-10-26 16:42:00,
2013-10-26 11:52:00,42.8,24.9,30.15,NNW,337,7.0,11.0,49,0.00,,,-99.99,Weather View 32 v70,2013-10-26 16:52:00,
2013-10-26 12:02:00,42.4,24.1,30.15,NW,319,6.0,11.0,48,0.00,,,-99.99,Weather View 32 v70,2013-10-26 17:02:00,
2013-10-26 12:12:00,42.6,24.3,30.15,West,278,6.0,11.0,48,0.00,,,-99.99,Weather View 32 v70,2013-10-26 17:12:00,
2013-10-26 12:17:00,43.2,25.3,30.15,NW,323,3.0,11.0,49,0.00,,,-99.99,Weather View 32 v70,2013-10-26 17:17:00,
2013-10-26 12:22:00,43.3,24.9,30.15,NW,309,6.0,11.0,48,0.00,,,-99.99,Weather View 32 v70,2013-10-26 17:22:00,
2013-10-26 12:27:00,43.2,23.8,30.15,NW,307,3.0,11.0,46,0.00,,,-99.99,Weather View 32 v70,2013-10-26 17:27:00,
2013-10-26 12:37:00,43.0,24.1,30.15,West,281,6.0,11.0,47,0.00,,,-99.99,Weather View 32 v70,2013-10-26 17:37:00,
2013-10-26 12:42:00,42.8,23.9,30.15,NW,318,4.0,11.0,47,0.00,,,-99.99,Weather View 32 v70,2013-10-26 17:42:00,
2013-10-26 12:47:00,42.8,23.9,30.15,WNW,286,6.0,11.0,47,0.00,,,-99.99,Weather View 32 v70,2013-10-26 17:47:00,
2013-10-26 12:57:00,42.8,23.9,30.15,NW,313,5.0,11.0,47,0.00,,,-99.99,Weather View 32 v70,2013-10-26 17:57:00,
2013-10-26 13:02:00,42.8,23.9,30.15,NW,322,6.0,10.0,47,0.00,,,-99.99,Weather View 32 v70,2013-10-26 18:02:00,
2013-10-26 13:07:00,42.6,23.8,30.15,WNW,290,4.0,10.0,47,0.00,,,-99.99,Weather View 32 v70,2013-10-26 18:07:00,
2013-10-26 13:17:00,42.4,23.6,30.15,NW,310,3.0,10.0,47,0.00,,,-99.99,Weather View 32 v70,2013-10-26 18:17:00,
2013-10-26 13:22:00,42.4,23.6,30.15,NNW,329,6.0,10.0,47,0.00,,,-99.99,Weather View 32 v70,2013-10-26 18:22:00,
2013-10-26 13:27:00,42.4,23.6,30.15,NW,318,4.0,10.0,47,0.00,,,-99.99,Weather View 32 v70,2013-10-26 18:27:00,
2013-10-26 13:32:00,42.3,23.4,30.15,NW,314,5.0,10.0,47,0.00,,,-99.99,Weather View 32 v70,2013-10-26 18:32:00,
2013-10-26 13:37:00,42.3,23.4,30.15,West,281,9.0,10.0,47,0.00,,,-99.99,Weather View 32 v70,2013-10-26 18:37:00,
2013-10-26 13:47:00,42.3,23.4,30.15,NW,326,4.0,10.0,47,0.00,,,-99.99,Weather View 32 v70,2013-10-26 18:47:00,
2013-10-26 13:52:00,42.3,22.9,30.15,WNW,301,4.0,10.0,46,0.00,,,-99.99,Weather View 32 v70,2013-10-26 18:52:00,
2013-10-26 13:57:00,42.3,23.4,30.15,West,278,3.0,10.0,47,0.00,,,-99.99,Weather View 32 v70,2013-10-26 18:57:00,
2013-10-26 14:02:00,42.4,23.1,30.15,NW,319,4.0,10.0,46,0.00,,,-99.99,Weather View 32 v70,2013-10-26 19:02:00,
2013-10-26 14:12:00,42.6,22.7,30.15,NW,316,3.0,10.0,45,0.00,,,-99.99,Weather View 32 v70,2013-10-26 19:12:00,
2013-10-26 14:17:00,42.6,22.7,30.15,West,271,4.0,10.0,45,0.00,,,-99.99,Weather View 32 v70,2013-10-26 19:17:00,
2013-10-26 14:22:00,42.8,22.9,30.15,NW,310,3.0,9.0,45,0.00,,,-99.99,Weather View 32 v70,2013-10-26 19:22:00,
2013-10-26 14:27:00,42.8,22.9,30.15,NNW,329,4.0,9.0,45,0.00,,,-99.99,Weather View 32 v70,2013-10-26 19:27:00,
2013-10-26 14:32:00,42.8,22.9,30.12,West,277,3.0,9.0,45,0.00,,,-99.99,Weather View 32 v70,2013-10-26 19:32:00,
2013-10-26 14:37:00,42.8,22.4,30.12,NW,316,3.0,9.0,44,0.00,,,-99.99,Weather View 32 v70,2013-10-26 19:37:00,
2013-10-26 14:47:00,43.0,23.1,30.12,WNW,293,3.0,8.0,45,0.00,,,-99.99,Weather View 32 v70,2013-10-26 19:47:00,
2013-10-26 14:52:00,43.0,22.5,30.12,WSW,256,4.0,8.0,44,0.00,,,-99.99,Weather View 32 v70,2013-10-26 19:52:00,
2013-10-26 14:57:00,43.0,22.5,30.12,West,274,5.0,8.0,44,0.00,,,-99.99,Weather View 32 v70,2013-10-26 19:57:00,
2013-10-26 15:07:00,43.0,22.5,30.12,NNW,327,5.0,8.0,44,0.00,,,-99.99,Weather View 32 v70,2013-10-26 20:07:00,
2013-10-26 15:12:00,43.0,22.5,30.12,WNW,283,5.0,8.0,44,0.00,,,-99.99,Weather View 32 v70,2013-10-26 20:12:00,
2013-10-26 15:17:00,43.0,22.0,30.12,NW,310,4.0,8.0,43,0.00,,,-99.99,Weather View 32 v70,2013-10-26 20:17:00,
2013-10-26 15:27:00,43.0,22.0,30.12,WNW,298,4.0,8.0,43,0.00,,,-99.99,Weather View 32 v70,2013-10-26 20:27:00,
2013-10-26 15:37:00,43.0,22.0,30.12,NW,306,3.0,8.0,43,0.00,,,-99.99,Weather View 32 v70,2013-10-26 20:37:00,
2013-10-26 15:42:00,43.2,22.1,30.12,WNW,297,0.0,8.0,43,0.00,,,-99.99,Weather View 32 v70,2013-10-26 20:42:00,
2013-10-26 15:47:00,43.3,22.3,30.12,West,270,4.0,8.0,43,0.00,,,-99.99,Weather View 32 v70,2013-10-26 20:47:00,
2013-10-26 15:52:00,43.2,22.1,30.12,WNW,286,4.0,8.0,43,0.00,,,-99.99,Weather View 32 v70,2013-10-26 20:52:00,
2013-10-26 16:02:00,43.0,22.0,30.09,NW,309,0.0,8.0,43,0.00,,,-99.99,Weather View 32 v70,2013-10-26 21:02:00,
2013-10-26 16:07:00,43.0,22.0,30.09,NW,318,4.0,8.0,43,0.00,,,-99.99,Weather View 32 v70,2013-10-26 21:07:00,
2013-10-26 16:12:00,43.0,22.0,30.09,West,265,4.0,8.0,43,0.00,,,-99.99,Weather View 32 v70,2013-10-26 21:12:00,
2013-10-26 16:17:00,43.2,22.1,30.09,WNW,301,0.0,8.0,43,0.00,,,-99.99,Weather View 32 v70,2013-10-26 21:17:00,
2013-10-26 16:27:00,43.5,22.5,30.09,NW,316,4.0,7.0,43,0.00,,,-99.99,Weather View 32 v70,2013-10-26 21:27:00,
2013-10-26 16:32:00,43.5,22.5,30.09,West,267,4.0,7.0,43,0.00,,,-99.99,Weather View 32 v70,2013-10-26 21:32:00,
2013-10-26 16:37:00,43.5,22.5,30.09,WSW,251,3.0,7.0,43,0.00,,,-99.99,Weather View 32 v70,2013-10-26 21:37:00,
2013-10-26 16:42:00,43.3,22.3,30.09,WNW,300,5.0,7.0,43,0.00,,,-99.99,Weather View 32 v70,2013-10-26 21:42:00,
2013-10-26 16:47:00,43.2,21.6,30.09,West,278,4.0,7.0,42,0.00,,,-99.99,Weather View 32 v70,2013-10-26 21:47:00,
2013-10-26 16:52:00,43.0,21.4,30.09,WNW,297,3.0,7.0,42,0.00,,,-99.99,Weather View 32 v70,2013-10-26 21:52:00,
2013-10-26 17:02:00,43.0,21.4,30.09,West,276,3.0,7.0,42,0.00,,,-99.99,Weather View 32 v70,2013-10-26 22:02:00,
2013-10-26 17:07:00,43.0,21.4,30.09,West,274,0.0,7.0,42,0.00,,,-99.99,Weather View 32 v70,2013-10-26 22:07:00,
2013-10-26 17:17:00,43.0,22.0,30.09,West,271,4.0,6.0,43,0.00,,,-99.99,Weather View 32 v70,2013-10-26 22:17:00,
2013-10-26 17:22:00,43.0,21.4,30.09,WNW,288,4.0,6.0,42,0.00,,,-99.99,Weather View 32 v70,2013-10-26 22:22:00,
2013-10-26 17:27:00,42.8,21.3,30.09,WNW,283,4.0,6.0,42,0.00,,,-99.99,Weather View 32 v70,2013-10-26 22:27:00,
2013-10-26 17:37:00,42.4,21.5,30.09,West,267,5.0,6.0,43,0.00,,,-99.99,Weather View 32 v70,2013-10-26 22:37:00,
2013-10-26 17:42:00,42.4,21.5,30.09,West,279,4.0,6.0,43,0.00,,,-99.99,Weather View 32 v70,2013-10-26 22:42:00,
2013-10-26 17:47:00,42.3,21.3,30.09,West,278,3.0,6.0,43,0.00,,,-99.99,Weather View 32 v70,2013-10-26 22:47:00,
2013-10-26 17:52:00,42.1,21.2,30.09,West,279,3.0,6.0,43,0.00,,,-99.99,Weather View 32 v70,2013-10-26 22:52:00,
2013-10-26 17:57:00,41.7,21.4,30.09,WNW,287,0.0,6.0,44,0.00,,,-99.99,Weather View 32 v70,2013-10-26 22:57:00,
2013-10-26 18:07:00,41.4,21.6,30.06,West,279,0.0,6.0,45,0.00,,,-99.99,Weather View 32 v70,2013-10-26 23:07:00,
2013-10-26 18:12:00,41.2,21.4,30.06,West,279,4.0,6.0,45,0.00,,,-99.99,Weather View 32 v70,2013-10-26 23:12:00,
2013-10-26 18:22:00,40.8,21.6,30.09,WNW,288,4.0,6.0,46,0.00,,,-99.99,Weather View 32 v70,2013-10-26 23:22:00,
2013-10-26 18:27:00,40.6,22.0,30.09,WNW,286,3.0,6.0,47,0.00,,,-99.99,Weather View 32 v70,2013-10-26 23:27:00,
2013-10-26 18:32:00,40.5,22.3,30.06,WNW,288,4.0,6.0,48,0.00,,,-99.99,Weather View 32 v70,2013-10-26 23:32:00,
2013-10-26 18:37:00,40.3,22.6,30.06,SSE,153,4.0,6.0,49,0.00,,,-99.99,Weather View 32 v70,2013-10-26 23:37:00,
2013-10-26 18:42:00,40.1,22.4,30.06,WNW,296,3.0,6.0,49,0.00,,,-99.99,Weather View 32 v70,2013-10-26 23:42:00,
2013-10-26 18:47:00,39.7,22.1,30.06,South,175,3.0,6.0,49,0.00,,,-99.99,Weather View 32 v70,2013-10-26 23:47:00,
2013-10-26 18:52:00,39.6,22.0,30.06,SE,139,4.0,6.0,49,0.00,,,-99.99,Weather View 32 v70,2013-10-26 23:52:00,
2013-10-26 19:02:00,39.0,22.4,30.06,SSE,148,3.0,6.0,51,0.00,,,-99.99,Weather View 32 v70,2013-10-27 00:02:00,
2013-10-26 19:07:00,38.8,22.2,30.06,SSE,157,3.0,6.0,51,0.00,,,-99.99,Weather View 32 v70,2013-10-27 00:07:00,
2013-10-26 19:17:00,38.5,21.9,30.06,SSE,168,0.0,6.0,51,0.00,,,-99.99,Weather View 32 v70,2013-10-27 00:17:00,
2013-10-26 19:22:00,38.3,21.3,30.06,SSE,168,0.0,6.0,50,0.00,,,-99.99,Weather View 32 v70,2013-10-27 00:22:00,
2013-10-26 19:27:00,37.8,20.8,30.06,SSE,168,0.0,5.0,50,0.00,,,-99.99,Weather View 32 v70,2013-10-27 00:27:00,
2013-10-26 19:37:00,37.2,21.2,30.06,SSE,168,0.0,5.0,52,0.00,,,-99.99,Weather View 32 v70,2013-10-27 00:37:00,
2013-10-26 19:42:00,37.0,21.0,30.06,SSE,168,0.0,5.0,52,0.00,,,-99.99,Weather View 32 v70,2013-10-27 00:42:00,
2013-10-26 19:47:00,36.9,20.9,30.03,SSE,167,0.0,5.0,52,0.00,,,-99.99,Weather View 32 v70,2013-10-27 00:47:00,
2013-10-26 19:52:00,36.9,21.3,30.03,SSE,168,0.0,5.0,53,0.00,,,-99.99,Weather View 32 v70,2013-10-27 00:52:00,
2013-10-26 19:57:00,36.7,21.1,30.03,SSE,167,0.0,5.0,53,0.00,,,-99.99,Weather View 32 v70,2013-10-27 00:57:00,
2013-10-26 20:02:00,36.3,20.8,30.03,SSE,168,0.0,5.0,53,0.00,,,-99.99,Weather View 32 v70,2013-10-27 01:02:00,
2013-10-26 20:12:00,35.6,20.6,30.03,SSE,168,0.0,2.0,54,0.00,,,-99.99,Weather View 32 v70,2013-10-27 01:12:00,
2013-10-26 20:17:00,35.2,20.2,30.03,SSE,168,0.0,0.0,54,0.00,,,-99.99,Weather View 32 v70,2013-10-27 01:17:00,
2013-10-26 20:22:00,34.9,19.9,30.03,SSE,168,0.0,0.0,54,0.00,,,-99.99,Weather View 32 v70,2013-10-27 01:22:00,
2013-10-26 20:30:00,34.3,19.8,30.03,SSE,168,0.0,0.0,55,0.00,,,-99.99,Weather View 32 v70,2013-10-27 01:30:00,
2013-10-26 20:37:00,33.8,19.8,30.00,SSE,167,0.0,0.0,56,0.00,,,-99.99,Weather View 32 v70,2013-10-27 01:37:00,
2013-10-26 20:42:00,33.4,19.8,30.00,SSE,168,0.0,0.0,57,0.00,,,-99.99,Weather View 32 v70,2013-10-27 01:42:00,
2013-10-26 20:52:00,32.9,20.1,30.00,SSE,167,2.0,3.0,59,0.00,,,-99.99,Weather View 32 v70,2013-10-27 01:52:00,
2013-10-26 20:57:00,32.9,20.5,30.00,SSE,167,0.0,3.0,60,0.00,,,-99.99,Weather View 32 v70,2013-10-27 01:57:00,
2013-10-26 21:02:00,32.7,20.7,30.00,SSE,167,0.0,3.0,61,0.00,,,-99.99,Weather View 32 v70,2013-10-27 02:02:00,
2013-10-26 21:07:00,32.7,21.1,30.00,SSE,168,0.0,3.0,62,0.00,,,-99.99,Weather View 32 v70,2013-10-27 02:07:00,
2013-10-26 21:17:00,32.7,21.9,30.00,SSE,166,2.0,4.0,64,0.00,,,-99.99,Weather View 32 v70,2013-10-27 02:17:00,
2013-10-26 21:27:00,32.5,22.4,30.00,SSE,161,3.0,4.0,66,0.00,,,-99.99,Weather View 32 v70,2013-10-27 02:27:00,
2013-10-26 21:32:00,32.7,23.0,29.97,SE,143,4.0,5.0,67,0.00,,,-99.99,Weather View 32 v70,2013-10-27 02:32:00,
2013-10-26 21:37:00,32.7,23.3,29.97,SE,143,4.0,5.0,68,0.00,,,-99.99,Weather View 32 v70,2013-10-27 02:37:00,
2013-10-26 21:47:00,32.7,23.3,29.97,SE,145,4.0,5.0,68,0.00,,,-99.99,Weather View 32 v70,2013-10-27 02:47:00,
2013-10-26 21:52:00,32.5,23.5,29.97,SSE,149,3.0,6.0,69,0.00,,,-99.99,Weather View 32 v70,2013-10-27 02:52:00,
2013-10-26 21:57:00,32.4,23.3,29.97,SSE,148,0.0,6.0,69,0.00,,,-99.99,Weather View 32 v70,2013-10-27 02:57:00,
2013-10-26 22:07:00,32.2,23.1,29.97,SE,146,3.0,6.0,69,0.00,,,-99.99,Weather View 32 v70,2013-10-27 03:07:00,
2013-10-26 22:12:00,32.2,23.5,29.97,SE,143,2.0,6.0,70,0.00,,,-99.99,Weather View 32 v70,2013-10-27 03:12:00,
2013-10-26 22:22:00,32.4,24.0,29.97,SE,138,5.0,6.0,71,0.00,,,-99.99,Weather View 32 v70,2013-10-27 03:22:00,
2013-10-26 22:27:00,32.4,24.3,29.97,SE,142,4.0,6.0,72,0.00,,,-99.99,Weather View 32 v70,2013-10-27 03:27:00,
2013-10-26 22:37:00,32.2,24.2,29.94,SE,145,0.0,6.0,72,0.00,,,-99.99,Weather View 32 v70,2013-10-27 03:37:00,
2013-10-26 22:42:00,32.0,24.0,29.94,SE,141,3.0,6.0,72,0.00,,,-99.99,Weather View 32 v70,2013-10-27 03:42:00,
2013-10-26 22:47:00,32.0,24.0,29.94,SE,141,4.0,6.0,72,0.00,,,-99.99,Weather View 32 v70,2013-10-27 03:47:00,
2013-10-26 22:52:00,32.0,24.3,29.94,SSE,149,6.0,6.0,73,0.00,,,-99.99,Weather View 32 v70,2013-10-27 03:52:00,
2013-10-26 23:02:00,32.5,25.2,29.92,SSE,149,0.0,6.0,74,0.00,,,-99.99,Weather View 32 v70,2013-10-27 04:02:00,
2013-10-26 23:07:00,32.9,25.5,29.92,SE,134,4.0,6.0,74,0.00,,,-99.99,Weather View 32 v70,2013-10-27 04:07:00,
2013-10-26 23:12:00,33.3,25.9,29.92,SE,146,2.0,6.0,74,0.00,,,-99.99,Weather View 32 v70,2013-10-27 04:12:00,
2013-10-26 23:17:00,33.3,25.9,29.92,SSE,154,4.0,6.0,74,0.00,,,-99.99,Weather View 32 v70,2013-10-27 04:17:00,
2013-10-26 23:27:00,33.1,25.0,29.92,SE,143,0.0,6.0,72,0.00,,,-99.99,Weather View 32 v70,2013-10-27 04:27:00,
2013-10-26 23:32:00,33.1,25.0,29.92,SE,143,4.0,6.0,72,0.00,,,-99.99,Weather View 32 v70,2013-10-27 04:32:00,
2013-10-26 23:37:00,32.9,24.9,29.92,SE,142,3.0,6.0,72,0.00,,,-99.99,Weather View 32 v70,2013-10-27 04:37:00,
2013-10-26 23:42:00,32.9,24.9,29.92,SE,144,3.0,6.0,72,0.00,,,-99.99,Weather View 32 v70,2013-10-27 04:42:00,
2013-10-26 23:47:00,32.9,24.9,29.92,SE,134,0.0,6.0,72,0.00,,,-99.99,Weather View 32 v70,2013-10-27 04:47:00,
2013-10-26 23:52:00,32.9,25.2,29.92,SSE,162,3.0,6.0,73,0.00,,,-99.99,Weather View 32 v70,2013-10-27 04:52:00,
2013-10-26 23:57:00,32.9,25.2,29.92,SSE,154,4.0,6.0,73,0.00,,,-99.99,Weather View 32 v70,2013-10-27 04:57:00,